User: anonymous   Login
Location: ????????
(55.6189°N, 38.3031°E)
Time: 14:09:34
(UTC+00:00)
Language:

Cosmos 2082 Rocket - Orbit

View from above orbital plane
View from above orbital plane
View from above satellite
View from above satellite

Ground track
Ground track

The orbit data is extracted from the following two-line orbital elements,

1 20625U 90046B   20022.14612731  .00000170  00000-0  11308-3 0  9999
2 20625  70.9996 317.3911 0012301 109.4127 250.8326 14.14646717532033
Epoch (UTC): 22 January 2020 03:30:25
Eccentricity: 0.0012301
inclination: 70.9996°
perigee height: 834 km
apogee height: 852 km
right ascension of ascending node: 317.3911°
argument of perigee: 109.4127°
revolutions per day: 14.14646717
mean anomaly at epoch: 250.8326°
orbit number at epoch: 53203

The dashed part of the orbit path shows where the satellite is in the earth's shadow,  

DLR